Location: Praha
(50.0830°N, 14.4670°E)
Time: 18:06:58
(UTC+01:00)

ISS - Pass Details

Date: 07 January 2020
Orbit: 415 x 421 km, 51.6° (Epoch: 18 January)

Event Time Altitude Azimuth Distance (km) Brightness Sun altitude
Exits shadow 07:11:44 - 266° (W) 1,727 -1.2 -7.5°
Reaches altitude 10° 07:12:40 10° 255° (WSW) 1,488 -1.4 -7.3°
Maximum altitude 07:14:26 14° 222° (SW) 1,278 -1.5 -7.1°
Drops below altitude 10° 07:16:12 10° 190° (S) 1,483 -0.7 -6.8°
Sets 07:19:03 0° 163° (SSE) 2,342 0.8 -6.4°
